Вернуться в каталог

CZ-6A DEB

АктивенPO
NORAD 60848·DEBRIS·🇨🇳 China

Запущен Aug 6, 2024 с Taiyuan Satellite Launch Center

Loading…

Ближайшие Пролёты (ближайшие 24 часа)

TLE

СвежийSource: Space-Track

Эпоха: Sep 14, 2026, 04:42 UTC

1 60848U 24140JB  26257.19629955  .00006083  00000-0  82889-3 0  9990
2 60848  88.7270 232.0627 0122668 194.3792 165.3928 14.73415613110115

Отслеживайте CZ-6A DEB в реальном времени с AllMySat

Download on the App Store